| time (UTC) | temp F | wind direction | speed MPH | gust MPH | rain 1hr in | rain 24hr in | rain mn in | humidity % | barometer mb |
| 20260506135903 | 48 | 243 | 2.0 | 3.0 | 0.00 | 0.00 | 0.00 | 50 | 1018.0 |
| 20260506135404 | 47 | 202 | 2.0 | 2.0 | 0.00 | 0.00 | 0.00 | 51 | 1017.9 |
| 20260506134903 | 47 | 206 | 1.0 | 1.0 | 0.00 | 0.00 | 0.00 | 51 | 1017.9 |
| 20260506134402 | 46 | 266 | 2.0 | 2.0 | 0.00 | 0.00 | 0.00 | 53 | 1018.0 |
| 20260506133403 | 44 | 209 | 1.0 | 1.0 | 0.00 | 0.00 | 0.00 | 56 | 1017.8 |
| 20260506132903 | 43 | 206 | 1.0 | 1.0 | 0.00 | 0.00 | 0.00 | 58 | 1017.6 |
| 20260506132403 | 42 | 146 | 1.0 | 1.0 | 0.00 | 0.00 | 0.00 | 58 | 1017.5 |
| 20260506131902 | 40 | 249 | 0.0 | 1.0 | 0.00 | 0.00 | 0.00 | 61 | 1017.4 |
| 20260506131403 | 39 | 292 | 2.0 | 2.0 | 0.00 | 0.00 | 0.00 | 63 | 1017.2 |
| 20260506130903 | 38 | 154 | 1.0 | 3.0 | 0.00 | 0.00 | 0.00 | 64 | 1017.1 |
| 20260506130403 | 38 | 196 | 2.0 | 3.0 | 0.00 | 0.00 | 0.00 | 64 | 1017.1 |
| 20260506125903 | 37 | 174 | 2.0 | 2.0 | 0.00 | 0.00 | 0.00 | 65 | 1017.1 |
| 20260506125403 | 37 | 165 | 1.0 | 3.0 | 0.00 | 0.00 | 0.00 | 66 | 1017.1 |
| 20260506124903 | 37 | 184 | 2.0 | 2.0 | 0.00 | 0.00 | 0.00 | 67 | 1017.0 |
| 20260506124403 | 36 | 158 | 1.0 | 2.0 | 0.00 | 0.00 | 0.00 | 67 | 1017.0 |
| 20260506123903 | 37 | 117 | 1.0 | 2.0 | 0.00 | 0.00 | 0.00 | 65 | 1016.9 |
| 20260506123403 | 37 | 227 | 1.0 | 2.0 | 0.00 | 0.00 | 0.00 | 65 | 1016.8 |
| 20260506122903 | 37 | 185 | 1.0 | 1.0 | 0.00 | 0.00 | 0.00 | 65 | 1016.7 |
| 20260506122403 | 37 | 109 | 2.0 | 3.0 | 0.00 | 0.00 | 0.00 | 63 | 1016.6 |
| 20260506121903 | 37 | 137 | 2.0 | 2.0 | 0.00 | 0.00 | 0.00 | 63 | 1016.5 |
| 20260506121403 | 38 | 122 | 1.0 | 2.0 | 0.00 | 0.00 | 0.00 | 63 | 1016.5 |
| 20260506120903 | 38 | 95 | 3.0 | 3.0 | 0.00 | 0.00 | 0.00 | 63 | 1016.4 |
| 20260506120403 | 39 | 135 | 2.0 | 2.0 | 0.00 | 0.00 | 0.00 | 62 | 1016.4 |
| 20260506115904 | 39 | 117 | 2.0 | 2.0 | 0.00 | 0.00 | 0.00 | 61 | 1016.5 |
| 20260506114402 | 39 | 130 | 2.0 | 3.0 | 0.00 | 0.00 | 0.00 | 60 | 1016.6 |
| 20260506113904 | 40 | 97 | 2.0 | 2.0 | 0.00 | 0.00 | 0.00 | 58 | 1016.6 |
| 20260506113403 | 41 | 134 | 2.0 | 2.0 | 0.00 | 0.00 | 0.00 | 58 | 1016.6 |
| 20260506112903 | 41 | 115 | 2.0 | 2.0 | 0.00 | 0.00 | 0.00 | 57 | 1016.5 |
| 20260506112403 | 42 | 150 | 1.0 | 2.0 | 0.00 | 0.00 | 0.00 | 55 | 1016.5 |
| 20260506111403 | 42 | 312 | 2.0 | 3.0 | 0.00 | 0.00 | 0.00 | 58 | 1016.5 |
| 20260506110903 | 42 | 329 | 2.0 | 3.0 | 0.00 | 0.00 | 0.00 | 58 | 1016.5 |
| 20260506110403 | 40 | 274 | 3.0 | 5.0 | 0.00 | 0.00 | 0.00 | 63 | 1016.4 |
| 20260506105903 | 39 | 277 | 3.0 | 5.0 | 0.00 | 0.00 | 0.00 | 62 | 1016.4 |
| 20260506104903 | 38 | 272 | 1.0 | 2.0 | 0.00 | 0.00 | 0.00 | 63 | 1016.4 |
| 20260506104402 | 38 | 49 | 2.0 | 3.0 | 0.00 | 0.00 | 0.00 | 64 | 1016.2 |
| 20260506103404 | 37 | 178 | 2.0 | 3.0 | 0.00 | 0.00 | 0.00 | 63 | 1016.1 |
| 20260506102903 | 37 | 84 | 2.0 | 3.0 | 0.00 | 0.00 | 0.00 | 61 | 1016.0 |
| 20260506102404 | 38 | 123 | 3.0 | 3.0 | 0.00 | 0.00 | 0.00 | 62 | 1016.0 |
| 20260506101903 | 38 | 68 | 1.0 | 1.0 | 0.00 | 0.00 | 0.00 | 61 | 1016.0 |
| 20260506101402 | 39 | 97 | 1.0 | 2.0 | 0.00 | 0.00 | 0.00 | 59 | 1016.0 |
| 20260506100903 | 39 | 125 | 2.0 | 3.0 | 0.00 | 0.00 | 0.00 | 59 | 1016.0 |
| 20260506100403 | 40 | 143 | 3.0 | 3.0 | 0.00 | 0.00 | 0.00 | 58 | 1015.9 |
| 20260506095904 | 40 | 48 | 2.0 | 3.0 | 0.00 | 0.00 | 0.00 | 58 | 1016.0 |
| 20260506095404 | 41 | 42 | 2.0 | 5.0 | 0.00 | 0.00 | 0.00 | 56 | 1016.0 |
| 20260506094903 | 41 | 106 | 3.0 | 3.0 | 0.00 | 0.00 | 0.00 | 55 | 1016.1 |
| 20260506094404 | 42 | 125 | 3.0 | 3.0 | 0.00 | 0.00 | 0.00 | 53 | 1016.1 |
| 20260506093903 | 43 | 153 | 3.0 | 3.0 | 0.00 | 0.00 | 0.00 | 52 | 1016.1 |
| 20260506092903 | 45 | 154 | 2.0 | 3.0 | 0.00 | 0.00 | 0.00 | 49 | 1016.2 |
| 20260506092403 | 48 | 147 | 4.0 | 6.0 | 0.00 | 0.00 | 0.00 | 44 | 1016.1 |
| 20260506091904 | 48 | 262 | 5.0 | 6.0 | 0.00 | 0.00 | 0.00 | 48 | 1016.1 |
| 20260506091403 | 48 | 312 | 3.0 | 3.0 | 0.00 | 0.00 | 0.00 | 48 | 1016.0 |
| 20260506090403 | 48 | 266 | 5.0 | 6.0 | 0.00 | 0.00 | 0.00 | 48 | 1015.9 |
| 20260506085904 | 48 | 234 | 2.0 | 5.0 | 0.00 | 0.00 | 0.00 | 48 | 1015.9 |
| 20260506085403 | 48 | 227 | 3.0 | 5.0 | 0.00 | 0.00 | 0.00 | 48 | 1015.9 |
| 20260506084403 | 48 | 255 | 4.0 | 7.0 | 0.00 | 0.00 | 0.00 | 47 | 1015.9 |
| 20260506083903 | 48 | 247 | 5.0 | 6.0 | 0.00 | 0.00 | 0.00 | 47 | 1015.9 |
| 20260506083403 | 48 | 233 | 4.0 | 5.0 | 0.00 | 0.00 | 0.00 | 47 | 1015.9 |
| 20260506081903 | 49 | 240 | 3.0 | 3.0 | 0.00 | 0.00 | 0.00 | 46 | 1015.9 |
| 20260506081404 | 49 | 250 | 2.0 | 7.0 | 0.00 | 0.00 | 0.00 | 45 | 1015.9 |
| 20260506080903 | 49 | 223 | 6.0 | 8.0 | 0.00 | 0.00 | 0.00 | 45 | 1015.8 |
| 20260506080402 | 49 | 225 | 6.0 | 8.0 | 0.00 | 0.00 | 0.00 | 45 | 1015.9 |
| 20260506072403 | 49 | 248 | 2.0 | 6.0 | 0.00 | 0.00 | 0.00 | 44 | 1016.0 |
| 20260506071903 | 49 | 230 | 5.0 | 6.0 | 0.00 | 0.00 | 0.00 | 44 | 1015.9 |
| 20260506071403 | 49 | 210 | 3.0 | 5.0 | 0.00 | 0.00 | 0.00 | 44 | 1015.9 |
| 20260506070903 | 49 | 260 | 3.0 | 5.0 | 0.00 | 0.00 | 0.00 | 43 | 1015.9 |
| 20260506070404 | 49 | 235 | 4.0 | 5.0 | 0.00 | 0.00 | 0.00 | 43 | 1015.9 |
| 20260506062403 | 50 | 237 | 6.0 | 7.0 | 0.00 | 0.00 | 0.00 | 41 | 1015.6 |
| 20260506061403 | 50 | 240 | 3.0 | 5.0 | 0.00 | 0.00 | 0.00 | 42 | 1015.6 |
| 20260506060904 | 50 | 250 | 5.0 | 9.0 | 0.00 | 0.00 | 0.00 | 41 | 1015.6 |
| 20260506060403 | 49 | 225 | 3.0 | 3.0 | 0.00 | 0.00 | 0.00 | 42 | 1015.6 |
| 20260506051404 | 50 | 128 | 2.0 | 2.0 | 0.00 | 0.00 | 0.00 | 39 | 1015.4 |
| 20260506050903 | 50 | 231 | 3.0 | 3.0 | 0.00 | 0.00 | 0.00 | 39 | 1015.3 |
| 20260506050403 | 51 | 229 | 2.0 | 3.0 | 0.00 | 0.00 | 0.00 | 39 | 1015.3 |
| 20260506044903 | 51 | 266 | 3.0 | 5.0 | 0.00 | 0.00 | 0.00 | 38 | 1015.2 |
| 20260506044404 | 51 | 289 | 5.0 | 5.0 | 0.00 | 0.00 | 0.00 | 38 | 1015.2 |
| 20260506043903 | 52 | 289 | 3.0 | 6.0 | 0.00 | 0.00 | 0.00 | 37 | 1015.2 |
| 20260506043404 | 52 | 271 | 6.0 | 8.0 | 0.00 | 0.00 | 0.00 | 36 | 1015.2 |
| 20260506042403 | 52 | 267 | 3.0 | 6.0 | 0.00 | 0.00 | 0.00 | 36 | 1015.0 |
| 20260506041904 | 52 | 250 | 6.0 | 8.0 | 0.00 | 0.00 | 0.00 | 36 | 1015.0 |
| 20260506041403 | 52 | 258 | 4.0 | 6.0 | 0.00 | 0.00 | 0.00 | 36 | 1015.0 |
| 20260506040904 | 52 | 255 | 8.0 | 8.0 | 0.00 | 0.00 | 0.00 | 35 | 1015.0 |
| 20260506040403 | 52 | 264 | 7.0 | 8.0 | 0.00 | 0.00 | 0.00 | 36 | 1014.9 |
| 20260506035904 | 52 | 243 | 7.0 | 10.0 | 0.00 | 0.00 | 0.00 | 36 | 1014.8 |
| 20260506035403 | 52 | 245 | 6.0 | 12.0 | 0.00 | 0.00 | 0.00 | 35 | 1014.8 |
| 20260506034903 | 52 | 247 | 5.0 | 7.0 | 0.00 | 0.00 | 0.00 | 36 | 1014.7 |
| 20260506034404 | 52 | 221 | 3.0 | 8.0 | 0.00 | 0.00 | 0.00 | 36 | 1014.7 |
| 20260506033403 | 52 | 245 | 7.0 | 7.0 | 0.00 | 0.00 | 0.00 | 36 | 1014.4 |
| 20260506032404 | 52 | 265 | 9.0 | 10.0 | 0.00 | 0.00 | 0.00 | 35 | 1014.2 |
| 20260506031404 | 52 | 252 | 7.0 | 8.0 | 0.00 | 0.00 | 0.00 | 34 | 1014.0 |
| 20260506025903 | 52 | 230 | 7.0 | 10.0 | 0.00 | 0.00 | 0.00 | 35 | 1013.8 |
| 20260506025403 | 52 | 246 | 6.0 | 9.0 | 0.00 | 0.00 | 0.00 | 35 | 1013.7 |
| 20260506024903 | 52 | 240 | 6.0 | 8.0 | 0.00 | 0.00 | 0.00 | 35 | 1013.6 |
| 20260506024403 | 53 | 239 | 5.0 | 6.0 | 0.00 | 0.00 | 0.00 | 35 | 1013.6 |
| 20260506023903 | 53 | 248 | 6.0 | 8.0 | 0.00 | 0.00 | 0.00 | 35 | 1013.5 |
| 20260506023404 | 53 | 259 | 4.0 | 8.0 | 0.00 | 0.00 | 0.00 | 35 | 1013.5 |
| 20260506022904 | 53 | 252 | 7.0 | 10.0 | 0.00 | 0.00 | 0.00 | 35 | 1013.3 |
| 20260506022404 | 53 | 269 | 6.0 | 8.0 | 0.00 | 0.00 | 0.00 | 34 | 1013.3 |
| 20260506021903 | 53 | 256 | 10.0 | 15.0 | 0.00 | 0.00 | 0.00 | 33 | 1013.2 |
| 20260506021404 | 53 | 256 | 12.0 | 13.0 | 0.00 | 0.00 | 0.00 | 34 | 1013.1 |
| 20260506020903 | 54 | 245 | 7.0 | 9.0 | 0.00 | 0.00 | 0.00 | 34 | 1013.0 |
| 20260506015904 | 55 | 267 | 7.0 | 13.0 | 0.00 | 0.00 | 0.00 | 34 | 1012.9 |
| 20260506014904 | 55 | 260 | 8.0 | 9.0 | 0.00 | 0.00 | 0.00 | 33 | 1012.8 |
| 20260506013903 | 56 | 245 | 7.0 | 12.0 | 0.00 | 0.00 | 0.00 | 33 | 1012.7 |
| 20260506013403 | 56 | 263 | 9.0 | 12.0 | 0.00 | 0.00 | 0.00 | 33 | 1012.6 |
| 20260506012903 | 56 | 252 | 10.0 | 12.0 | 0.00 | 0.00 | 0.00 | 33 | 1012.5 |
| 20260506012404 | 56 | 234 | 9.0 | 14.0 | 0.00 | 0.00 | 0.00 | 32 | 1012.5 |
| 20260506011904 | 56 | 239 | 11.0 | 12.0 | 0.00 | 0.00 | 0.00 | 32 | 1012.4 |
| 20260506010903 | 57 | 237 | 10.0 | 10.0 | 0.00 | 0.00 | 0.00 | 31 | 1012.4 |
| 20260506010403 | 57 | 234 | 7.0 | 14.0 | 0.00 | 0.00 | 0.00 | 32 | 1012.3 |
| 20260506005903 | 57 | 246 | 9.0 | 13.0 | 0.00 | 0.00 | 0.00 | 31 | 1012.3 |
| 20260506005404 | 56 | 231 | 9.0 | 15.0 | 0.00 | 0.00 | 0.00 | 32 | 1012.3 |
| 20260506004404 | 58 | 262 | 8.0 | 15.0 | 0.00 | 0.00 | 0.00 | 32 | 1012.1 |
| 20260506003903 | 58 | 243 | 8.0 | 10.0 | 0.00 | 0.00 | 0.00 | 32 | 1012.1 |
| 20260506003403 | 57 | 209 | 12.0 | 12.0 | 0.00 | 0.00 | 0.00 | 32 | 1012.1 |
| 20260506002903 | 57 | 227 | 11.0 | 15.0 | 0.00 | 0.00 | 0.00 | 33 | 1012.1 |
| 20260506002405 | 59 | 256 | 8.0 | 18.0 | 0.00 | 0.00 | 0.00 | 32 | 1012.1 |
| 20260506001903 | 58 | 262 | 7.0 | 15.0 | 0.00 | 0.00 | 0.00 | 32 | 1012.0 |
| 20260506001404 | 57 | 236 | 5.0 | 13.0 | 0.00 | 0.00 | 0.00 | 33 | 1011.9 |
| 20260506000903 | 57 | 236 | 13.0 | 16.0 | 0.00 | 0.00 | 0.00 | 33 | 1011.9 |
| 20260505235903 | 57 | 213 | 10.0 | 15.0 | 0.00 | 0.00 | 0.00 | 34 | 1011.8 |
| 20260505234903 | 59 | 257 | 16.0 | 21.0 | 0.00 | 0.00 | 0.00 | 31 | 1011.5 |
| 20260505234405 | 60 | 220 | 12.0 | 14.0 | 0.00 | 0.00 | 0.00 | 28 | 1011.4 |
| 20260505233904 | 61 | 232 | 12.0 | 20.0 | 0.00 | 0.00 | 0.00 | 27 | 1011.4 |
| 20260505233403 | 60 | 260 | 13.0 | 18.0 | 0.00 | 0.00 | 0.00 | 27 | 1011.2 |
| 20260505232904 | 60 | 226 | 9.0 | 16.0 | 0.00 | 0.00 | 0.00 | 27 | 1011.3 |
| 20260505232405 | 61 | 216 | 11.0 | 16.0 | 0.00 | 0.00 | 0.00 | 26 | 1011.3 |
| 20260505231904 | 61 | 244 | 10.0 | 15.0 | 0.00 | 0.00 | 0.00 | 26 | 1011.2 |
| 20260505231403 | 59 | 247 | 12.0 | 17.0 | 0.00 | 0.00 | 0.00 | 27 | 1011.2 |
| 20260505230903 | 59 | 202 | 15.0 | 16.0 | 0.00 | 0.00 | 0.00 | 27 | 1011.3 |
| 20260505230404 | 60 | 262 | 10.0 | 12.0 | 0.00 | 0.00 | 0.00 | 28 | 1011.2 |
| 20260505225903 | 60 | 229 | 14.0 | 17.0 | 0.00 | 0.00 | 0.00 | 27 | 1011.3 |
| 20260505225403 | 59 | 206 | 12.0 | 17.0 | 0.00 | 0.00 | 0.00 | 28 | 1011.4 |
| 20260505224904 | 58 | 222 | 17.0 | 24.0 | 0.00 | 0.00 | 0.00 | 28 | 1011.4 |
| 20260505224403 | 59 | 220 | 18.0 | 22.0 | 0.00 | 0.00 | 0.00 | 27 | 1011.3 |
| 20260505223903 | 59 | 217 | 14.0 | 18.0 | 0.00 | 0.00 | 0.00 | 27 | 1011.4 |
| 20260505223404 | 60 | 224 | 18.0 | 20.0 | 0.00 | 0.00 | 0.00 | 26 | 1011.4 |
| 20260505222904 | 58 | 222 | 16.0 | 17.0 | 0.00 | 0.00 | 0.00 | 29 | 1011.5 |
| 20260505222403 | 59 | 208 | 10.0 | 21.0 | 0.00 | 0.00 | 0.00 | 28 | 1011.5 |
| 20260505221904 | 58 | 228 | 9.0 | 21.0 | 0.00 | 0.00 | 0.00 | 29 | 1011.7 |
| 20260505221404 | 59 | 213 | 14.0 | 17.0 | 0.00 | 0.00 | 0.00 | 28 | 1011.7 |
| 20260505220903 | 61 | 245 | 13.0 | 16.0 | 0.00 | 0.00 | 0.00 | 25 | 1011.8 |
| 20260505220404 | 61 | 256 | 9.0 | 13.0 | 0.00 | 0.00 | 0.00 | 25 | 1011.9 |
| 20260505215904 | 60 | 246 | 7.0 | 14.0 | 0.00 | 0.00 | 0.00 | 26 | 1011.9 |
| 20260505214403 | 60 | 229 | 9.0 | 10.0 | 0.00 | 0.00 | 0.00 | 26 | 1012.0 |
| 20260505213903 | 60 | 166 | 15.0 | 18.0 | 0.00 | 0.00 | 0.00 | 26 | 1011.9 |
| 20260505213404 | 61 | 213 | 15.0 | 17.0 | 0.00 | 0.00 | 0.00 | 27 | 1012.0 |
| 20260505212404 | 61 | 242 | 14.0 | 29.0 | 0.00 | 0.00 | 0.00 | 29 | 1012.1 |
| 20260505210904 | 60 | 227 | 10.0 | 13.0 | 0.00 | 0.00 | 0.00 | 32 | 1012.3 |
| 20260505210405 | 60 | 223 | 18.0 | 23.0 | 0.00 | 0.00 | 0.00 | 32 | 1012.4 |
| 20260505205904 | 60 | 231 | 13.0 | 16.0 | 0.00 | 0.00 | 0.00 | 33 | 1012.4 |
| 20260505205404 | 61 | 225 | 10.0 | 15.0 | 0.00 | 0.00 | 0.00 | 32 | 1012.4 |
| 20260505204903 | 62 | 236 | 9.0 | 13.0 | 0.00 | 0.00 | 0.00 | 32 | 1012.4 |
| 20260505204403 | 61 | 235 | 9.0 | 13.0 | 0.00 | 0.00 | 0.00 | 34 | 1012.3 |
| 20260505203903 | 61 | 259 | 12.0 | 21.0 | 0.00 | 0.00 | 0.00 | 33 | 1012.5 |
| 20260505203403 | 61 | 229 | 15.0 | 17.0 | 0.00 | 0.00 | 0.00 | 31 | 1012.5 |
| 20260505202903 | 62 | 236 | 12.0 | 13.0 | 0.00 | 0.00 | 0.00 | 30 | 1012.5 |
| 20260505202403 | 62 | 256 | 10.0 | 13.0 | 0.00 | 0.00 | 0.00 | 31 | 1012.5 |
| 20260505201904 | 60 | 243 | 13.0 | 15.0 | 0.00 | 0.00 | 0.00 | 32 | 1012.6 |
| 20260505201403 | 60 | 238 | 11.0 | 15.0 | 0.00 | 0.00 | 0.00 | 33 | 1012.6 |
| 20260505200904 | 60 | 244 | 9.0 | 15.0 | 0.00 | 0.00 | 0.00 | 34 | 1012.7 |
| 20260505200403 | 59 | 220 | 12.0 | 14.0 | 0.00 | 0.00 | 0.00 | 35 | 1012.8 |
| 20260505195403 | 59 | 258 | 12.0 | 15.0 | 0.00 | 0.00 | 0.00 | 33 | 1012.7 |
| 20260505194903 | 58 | 248 | 12.0 | 13.0 | 0.00 | 0.00 | 0.00 | 35 | 1012.7 |
| 20260505194403 | 59 | 249 | 9.0 | 15.0 | 0.00 | 0.00 | 0.00 | 35 | 1012.8 |
| 20260505193904 | 57 | 216 | 7.0 | 15.0 | 0.00 | 0.00 | 0.00 | 36 | 1012.9 |
| 20260505193403 | 58 | 232 | 13.0 | 15.0 | 0.00 | 0.00 | 0.00 | 33 | 1012.9 |
| 20260505191904 | 57 | 232 | 14.0 | 15.0 | 0.00 | 0.00 | 0.00 | 36 | 1013.1 |
| 20260505190904 | 59 | 196 | 7.0 | 15.0 | 0.00 | 0.00 | 0.00 | 35 | 1013.0 |
| 20260505190403 | 58 | 243 | 11.0 | 17.0 | 0.00 | 0.00 | 0.00 | 37 | 1013.0 |
| 20260505185904 | 58 | 196 | 9.0 | 17.0 | 0.00 | 0.00 | 0.00 | 38 | 1012.8 |
| 20260505185403 | 58 | 158 | 6.0 | 15.0 | 0.00 | 0.00 | 0.00 | 38 | 1012.9 |
| 20260505184904 | 57 | 193 | 9.0 | 15.0 | 0.00 | 0.00 | 0.00 | 40 | 1013.0 |
| 20260505184404 | 56 | 173 | 10.0 | 13.0 | 0.00 | 0.00 | 0.00 | 43 | 1013.1 |
| 20260505183904 | 56 | 252 | 10.0 | 13.0 | 0.00 | 0.00 | 0.00 | 42 | 1013.1 |
| 20260505183403 | 55 | 212 | 9.0 | 13.0 | 0.00 | 0.00 | 0.00 | 44 | 1013.2 |
| 20260505182904 | 56 | 222 | 7.0 | 12.0 | 0.00 | 0.00 | 0.00 | 42 | 1013.2 |
| 20260505182404 | 56 | 254 | 7.0 | 10.0 | 0.00 | 0.00 | 0.00 | 44 | 1013.3 |
| 20260505181904 | 55 | 262 | 9.0 | 15.0 | 0.00 | 0.00 | 0.00 | 44 | 1013.3 |
| 20260505181404 | 56 | 232 | 10.0 | 15.0 | 0.00 | 0.00 | 0.00 | 43 | 1013.1 |
| 20260505180904 | 58 | 227 | 12.0 | 16.0 | 0.00 | 0.00 | 0.00 | 40 | 1013.0 |
| 20260505180403 | 58 | 251 | 6.0 | 18.0 | 0.00 | 0.00 | 0.00 | 40 | 1013.0 |
| 20260505175904 | 57 | 251 | 7.0 | 18.0 | 0.00 | 0.00 | 0.00 | 43 | 1013.0 |
| 20260505175404 | 57 | 230 | 7.0 | 10.0 | 0.00 | 0.00 | 0.00 | 41 | 1013.0 |
| 20260505174903 | 57 | 240 | 10.0 | 14.0 | 0.00 | 0.00 | 0.00 | 39 | 1013.0 |
| 20260505174404 | 57 | 249 | 8.0 | 14.0 | 0.00 | 0.00 | 0.00 | 42 | 1012.9 |
| 20260505173404 | 57 | 228 | 12.0 | 14.0 | 0.00 | 0.00 | 0.00 | 41 | 1012.8 |
| 20260505172904 | 58 | 223 | 10.0 | 15.0 | 0.00 | 0.00 | 0.00 | 38 | 1012.7 |
| 20260505172404 | 59 | 229 | 8.0 | 10.0 | 0.00 | 0.00 | 0.00 | 37 | 1012.6 |
| 20260505171904 | 59 | 238 | 8.0 | 12.0 | 0.00 | 0.00 | 0.00 | 37 | 1012.6 |
| 20260505171405 | 59 | 258 | 11.0 | 13.0 | 0.00 | 0.00 | 0.00 | 39 | 1012.6 |
| 20260505170904 | 58 | 244 | 12.0 | 12.0 | 0.00 | 0.00 | 0.00 | 38 | 1012.7 |
| 20260505170404 | 58 | 194 | 7.0 | 8.0 | 0.00 | 0.00 | 0.00 | 38 | 1012.8 |
| 20260505165904 | 57 | 193 | 9.0 | 9.0 | 0.00 | 0.00 | 0.00 | 40 | 1012.8 |
| 20260505165403 | 58 | 203 | 12.0 | 13.0 | 0.00 | 0.00 | 0.00 | 35 | 1012.8 |
| 20260505164904 | 57 | 183 | 8.0 | 10.0 | 0.00 | 0.00 | 0.00 | 38 | 1012.7 |
| 20260505164403 | 57 | 171 | 10.0 | 13.0 | 0.00 | 0.00 | 0.00 | 38 | 1012.8 |
| 20260505163905 | 56 | 161 | 10.0 | 12.0 | 0.00 | 0.00 | 0.00 | 42 | 1012.9 |
| 20260505163404 | 56 | 183 | 7.0 | 9.0 | 0.00 | 0.00 | 0.00 | 42 | 1012.9 |
| 20260505162903 | 56 | 183 | 10.0 | 15.0 | 0.00 | 0.00 | 0.00 | 41 | 1012.9 |
| 20260505162404 | 56 | 171 | 9.0 | 15.0 | 0.00 | 0.00 | 0.00 | 42 | 1012.8 |
| 20260505160404 | 55 | 186 | 8.0 | 13.0 | 0.00 | 0.00 | 0.00 | 44 | 1013.3 |
| 20260505152903 | 51 | 203 | 5.0 | 8.0 | 0.00 | 0.00 | 0.00 | 50 | 1013.2 |
| 20260505152404 | 51 | 137 | 7.0 | 9.0 | 0.00 | 0.00 | 0.00 | 50 | 1013.2 |
| 20260505151905 | 51 | 147 | 8.0 | 10.0 | 0.00 | 0.00 | 0.00 | 50 | 1013.1 |
| 20260505151403 | 51 | 214 | 12.0 | 13.0 | 0.00 | 0.00 | 0.00 | 50 | 1013.1 |
| 20260505150404 | 51 | 195 | 9.0 | 12.0 | 0.00 | 0.00 | 0.00 | 48 | 1013.2 |
| 20260505140404 | 51 | 154 | 4.0 | 7.0 | 0.00 | 0.00 | 0.00 | 47 | 1013.0 |